Regional Weather Roundup
Issued by NWS

Home | Current Version | Previous Version | Graphics & Text | Print | Product List | Glossary On
Versions: 1 2 3 4 5 6 7 8 9 10 11 12 13 14 15 16 17 18 19 20 21 22 23 24 25 26 27 28 29 30 31 32 33 34 35 36 37 38 39 40 41 42 43 44 45 46 47 48 49 50
000
ASUS45 KBOU 261207
RWRCO

WEATHER ROUNDUP FOR COLORADO
NATIONAL WEATHER SERVICE DENVER/BOULDER CO
600 AM MDT WED JUL 26 2017

NOTE: "FAIR" INDICATES FEW OR NO CLOUDS BELOW 12000 FEET WITH NO
SIGNIFICANT WEATHER AND/OR OBSTRUCTIONS TO VISIBILITY.

COZ001>005-013-030-031-261300-
...NORTHWEST COLORADO...

CITY           SKY/WX    TMP DP  RH WIND       PRES   REMARKS
CRAIG          CLOUDY    61  59  93 CALM      30.29R
HAYDEN         CLOUDY    59  55  88 NE5       30.31R
MEEKER         CLOUDY    61  60  97 CALM      30.30R
RABBIT EARS PA RAIN      50  50 100 W6        30.55S VSB 1/2
STEAMBOAT SPGS CLOUDY    59  58  98 CALM      30.32S
WALDEN         NOT AVBL
$$

COZ006>008-011-261300-
...WEST CENTRAL VALLEYS...

CITY           SKY/WX    TMP DP  RH WIND       PRES   REMARKS
GRAND JUNCTION CLOUDY    67  67 100 CALM      30.20R
MONTROSE       MOCLDY    61  60  97 E3        30.28R
EAGLE          CLOUDY    61  57  87 CALM      30.33R
RIFLE          LGT RAIN  63  62  97 CALM      30.25R
DELTA          RAIN      64  61  91 CALM      30.25R
NUCLA          MOCLDY    61  57  88 SE6       30.33R
$$

COZ017>023-064>068-261300-
...SOUTHWEST COLORADO...

CITY           SKY/WX    TMP DP  RH WIND       PRES   REMARKS
DURANGO        FAIR      57  54  89 N5        30.34R
CORTEZ         MOCLDY    56  56 100 NE6       30.29R
PAGOSA SPRINGS CLOUDY    57  56  98 CALM      30.41S
TELLURIDE      CLOUDY    55  52  89 SE5       30.50S
WOLF CREEK PAS FOG       45  45 100 SW3       30.73R VSB 1/4
$$

COZ009-010-012-014-032>034-037-058>063-261300-
...CENTRAL COLORADO...

CITY           SKY/WX    TMP DP  RH WIND       PRES   REMARKS
ASPEN          CLOUDY    57  54  89 CALM      30.37R
BUENA VISTA    FAIR      54  51  87 CALM      30.40R
COPPER MTN     CLOUDY    52  43  71 CALM      30.66S
BERTHOUD PASS  CLOUDY    43  30  61 W15       30.68S
COTTONWOOD PAS CLOUDY    59  46  63 CALM      30.51S
GUNNISON       MOCLDY    55  53  93 CALM      30.41R
KREMMLING      CLOUDY    63  59  88 CALM      30.37R
LEADVILLE      CLOUDY    48  46  93 CALM      30.50S
MONARCH PASS   CLOUDY    45  45 100 W23G29    30.76R
SALIDA         FAIR      57  55  94 N3        30.45R
SUNLIGHT       CLOUDY    46  46 100 SW8       30.60R
WILKERSON PASS MOCLDY    50  43  76 SW6       30.64R
$$

COZ069>075-261300-
...SAN LUIS VALLEY/SANGRE DE CRISTO MOUNTAINS...

CITY           SKY/WX    TMP DP  RH WIND       PRES   REMARKS
ALAMOSA        FOG       53  53 100 SE3       30.39R VSB 1/4
DEL NORTE      FAIR      54  53  95 CALM      30.43R
LA VETA PASS   NOT AVBL
SAGUACHE         N/A    N/A N/A N/A MISG        N/A
$$

COZ035-036-038>040-261300-
...NORTHERN COLORADO FRONT RANGE...

CITY           SKY/WX    TMP DP  RH WIND       PRES   REMARKS
DENVER INTL AP MOCLDY    66  57  72 NW12      30.23R
DMNS CITY PARK   N/A     66  57  71 N10       30.24R
AURORA         MOCLDY    62  59  88 N6        30.25S
FRONT RANGE AP CLOUDY    63  59  88 N8        30.24S
ERIE MUNI ARPT CLOUDY    64  61  90 CALM      30.22S
BOULDER MUN AP CLOUDY    66  59  77 CALM      30.22S
CENTENNIAL     MOCLDY    63  59  87 NW5       30.26R
BROOMFIELD     CLOUDY    66  57  72 N5        30.26R
FORT COLLINS   CLOUDY    67  59  75 NW3       30.22R
LONGMONT       CLOUDY    67  60  80 CALM      30.23S
$$

COZ041-046-047-076>085-087-088-261300-
...PIKES PEAK/PALMER DIVIDE AND SOUTHERN FOOTHILLS...

CITY           SKY/WX    TMP DP  RH WIND       PRES   REMARKS
COLO. SPRINGS  MOCLDY    65  58  78 N10       30.27R
A. F. ACADEMY  FAIR      60  56  87 N8        30.29R
SCHRIEVER AFB  FAIR      62  55  76 N16G23    30.26S
CHEYENNE MTN   MOCLDY    63  53  70 NW7       30.26R
ELLICOTT       FAIR     N/A N/A N/A N9        30.25R
FALCON           N/A     60  54  78 N12G18    30.31R
FORT CARSON    MOCLDY    63  57  81 N8        30.23R
LIMON          FAIR      60  58  92 NW7       30.20R
MONUMENT HILL  FAIR      54  54 100 W6        30.34S
CANON CITY     CLEAR     66  61  82 CALM      30.21R
WALSENBURG     FAIR      63  59  88 W5        30.26R
TRINIDAD       FAIR      63  56  78 W6        30.23R
$$

COZ042>045-048>051-090-091-261300-
...NORTHEAST COLORADO...

CITY           SKY/WX    TMP DP  RH WIND       PRES   REMARKS
GREELEY ARPT   FAIR      65  59  81 W6        30.20R
AKRON          CLOUDY    67  61  81 N10       30.15R
BURLINGTON     FAIR      68  61  78 NW12      30.07R
WRAY           NOT AVBL
YUMA           CLOUDY    66  55  68 N12G20    30.09R
STERLING       MOCLDY    68  63  83 N6        30.11R
HOLYOKE        CLOUDY    70  64  83 N12       30.08R
FORT MORGAN    FAIR      63  56  79 W7        30.17R
$$

COZ086-089-092>099-261300-
...SOUTHEAST COLORADO...

CITY           SKY/WX    TMP DP  RH WIND       PRES   REMARKS
PUEBLO         FAIR      69  60  73 N5        30.16R
LA JUNTA       FAIR      69  60  73 W9        30.12R
LAMAR          FAIR      70  61  73 W6        30.05R
SPRINGFIELD      N/A     70  59  68 NW10      30.10R
$$



USA.gov is the U.S. government's official web portal to all federal, state and local government web resources and services.